• In Netherlands
  • List of Countries
  • For 7 days
  • Water Temperature
  • Satellite Maps
  • Weather Map
  • Weather Widgets
  • user-avatar
    Login

    Hourly Weather Belize

    Today, 28 July, Friday

    Time Temperature Precipitation Wind Pressure Humidity
    00:00 +26°C° 0 mm 2 mps 759 mmHg 97%
    01:00 +26°C° 0.4 mm 2 mps 759 mmHg 98%
    02:00 +26°C° 0.4 mm 1 mps 759 mmHg 98%
    03:00 +25°C° 0.4 mm 1 mps 758 mmHg 98%
    04:00 +25°C° 0.2 mm 1 mps 759 mmHg 99%
    05:00 +25°C° 0.2 mm 1 mps 759 mmHg 99%
    06:00 +23°C° 0.2 mm 0 mps 759 mmHg 99%
    07:00 +28°C° 0 mm 1 mps 759 mmHg 87%
    08:00 +31°C° 0 mm 1 mps 759 mmHg 75%
    09:00 +33°C° 0 mm 1 mps 760 mmHg 63%
    10:00 +34°C° 0 mm 1 mps 759 mmHg 58%
    11:00 +35°C° 0 mm 1 mps 759 mmHg 54%
    12:00 +36°C° 0 mm 1 mps 759 mmHg 49%
    13:00 +37°C° 0 mm 2 mps 759 mmHg 50%
    14:00 +37°C° 0 mm 2 mps 758 mmHg 50%
    15:00 +36°C° 0 mm 3 mps 758 mmHg 51%
    16:00 +35°C° 0 mm 3 mps 758 mmHg 59%
    17:00 +33°C° 0 mm 3 mps 758 mmHg 66%
    18:00 +30°C° 0 mm 3 mps 758 mmHg 73%
    19:00 +29°C° 0 mm 3 mps 758 mmHg 79%
    20:00 +28°C° 0 mm 3 mps 758 mmHg 85%
    21:00 +27°C° 0 mm 3 mps 759 mmHg 91%
    22:00 +27°C° 0 mm 3 mps 759 mmHg 92%
    23:00 +26°C° 0 mm 3 mps 759 mmHg 93%

    Tomorrow, 29 July, Saturday

    Time Temperature Precipitation Wind Pressure Humidity
    00:00 +26°C° 0 mm 2 mps 759 mmHg 94%
    01:00 +26°C° 0 mm 2 mps 759 mmHg 95%
    02:00 +26°C° 0 mm 2 mps 758 mmHg 96%
    03:00 +26°C° 0 mm 2 mps 758 mmHg 97%
    04:00 +26°C° 0 mm 2 mps 758 mmHg 97%
    05:00 +26°C° 0 mm 1 mps 758 mmHg 97%
    06:00 +26°C° 0 mm 1 mps 758 mmHg 97%
    07:00 +28°C° 0 mm 2 mps 759 mmHg 87%
    08:00 +31°C° 0 mm 2 mps 759 mmHg 76%
    09:00 +34°C° 0 mm 2 mps 759 mmHg 66%
    10:00 +35°C° 0.3 mm 2 mps 759 mmHg 64%
    11:00 +35°C° 0.3 mm 3 mps 759 mmHg 62%
    12:00 +36°C° 0.3 mm 3 mps 759 mmHg 61%
    13:00 +36°C° 0.1 mm 3 mps 758 mmHg 59%
    14:00 +36°C° 0.1 mm 3 mps 758 mmHg 58%
    15:00 +36°C° 0.1 mm 4 mps 757 mmHg 56%
    16:00 +35°C° 0.1 mm 4 mps 757 mmHg 64%
    17:00 +33°C° 0.1 mm 4 mps 757 mmHg 71%
    18:00 +32°C° 0.1 mm 4 mps 757 mmHg 78%
    19:00 +30°C° 0.4 mm 4 mps 758 mmHg 83%
    20:00 +29°C° 0.4 mm 4 mps 758 mmHg 88%
    21:00 +28°C° 0.4 mm 4 mps 759 mmHg 93%
    22:00 +28°C° 0.1 mm 4 mps 759 mmHg 93%
    23:00 +28°C° 0.1 mm 4 mps 759 mmHg 93%

    Day after tomorrow, 30 July, Sunday

    Time Temperature Precipitation Wind Pressure Humidity
    00:00 +27°C° 0.1 mm 4 mps 759 mmHg 94%
    01:00 +27°C° 0 mm 4 mps 758 mmHg 95%
    02:00 +27°C° 0 mm 3 mps 758 mmHg 95%
    03:00 +27°C° 0 mm 3 mps 758 mmHg 96%
    04:00 +27°C° 0.1 mm 3 mps 758 mmHg 96%
    05:00 +27°C° 0.1 mm 3 mps 758 mmHg 96%
    06:00 +28°C° 0.1 mm 3 mps 758 mmHg 97%
    07:00 +29°C° 0.1 mm 3 mps 758 mmHg 91%
    08:00 +30°C° 0.1 mm 4 mps 759 mmHg 86%
    09:00 +33°C° 0.1 mm 4 mps 759 mmHg 80%
    10:00 +33°C° 0.5 mm 4 mps 759 mmHg 80%
    11:00 +33°C° 0.5 mm 4 mps 759 mmHg 80%
    12:00 +34°C° 0.5 mm 4 mps 759 mmHg 80%
    13:00 +34°C° 0 mm 4 mps 758 mmHg 73%
    14:00 +35°C° 0 mm 4 mps 758 mmHg 66%
    15:00 +36°C° 0 mm 4 mps 758 mmHg 59%
    16:00 +34°C° 0.4 mm 4 mps 758 mmHg 66%
    17:00 +33°C° 0.4 mm 4 mps 758 mmHg 73%
    18:00 +30°C° 0.4 mm 4 mps 758 mmHg 80%
    19:00 +30°C° 0.7 mm 4 mps 758 mmHg 85%
    20:00 +29°C° 0.7 mm 4 mps 759 mmHg 90%
    21:00 +28°C° 0.7 mm 4 mps 759 mmHg 96%
    22:00 +28°C° 0.1 mm 4 mps 759 mmHg 96%
    23:00 +28°C° 0.1 mm 4 mps 759 mmHg 96%

    31 July, Monday

    Time Temperature Precipitation Wind Pressure Humidity
    00:00 +28°C° 0.1 mm 5 mps 759 mmHg 96%
    01:00 +27°C° 0 mm 4 mps 758 mmHg 97%
    02:00 +27°C° 0 mm 4 mps 758 mmHg 97%
    03:00 +27°C° 0 mm 4 mps 758 mmHg 97%
    04:00 +27°C° 0.1 mm 4 mps 758 mmHg 97%
    05:00 +27°C° 0.1 mm 4 mps 758 mmHg 97%
    06:00 +28°C° 0.1 mm 4 mps 758 mmHg 97%
    07:00 +29°C° 0.4 mm 4 mps 759 mmHg 92%
    08:00 +30°C° 0.4 mm 4 mps 759 mmHg 86%
    09:00 +33°C° 0.4 mm 5 mps 759 mmHg 81%
    10:00 +34°C° 0.2 mm 5 mps 759 mmHg 74%
    11:00 +35°C° 0.2 mm 5 mps 759 mmHg 66%
    12:00 +36°C° 0.2 mm 5 mps 759 mmHg 59%
    13:00 +36°C° 0 mm 5 mps 758 mmHg 58%
    14:00 +36°C° 0 mm 5 mps 758 mmHg 58%
    15:00 +36°C° 0 mm 5 mps 757 mmHg 57%
    16:00 +35°C° 0 mm 5 mps 757 mmHg 64%
    17:00 +33°C° 0 mm 5 mps 758 mmHg 71%
    18:00 +32°C° 0 mm 5 mps 758 mmHg 77%
    19:00 +30°C° 0.1 mm 5 mps 758 mmHg 83%
    20:00 +29°C° 0.1 mm 5 mps 759 mmHg 89%
    21:00 +28°C° 0.1 mm 5 mps 759 mmHg 95%
    22:00 +28°C° 0.1 mm 5 mps 759 mmHg 96%
    23:00 +28°C° 0.1 mm 5 mps 759 mmHg 96%

    1 August, Tuesday

    Time Temperature Precipitation Wind Pressure Humidity
    00:00 +28°C° 0.1 mm 5 mps 759 mmHg 97%
    01:00 +28°C° 0.2 mm 6 mps 759 mmHg 97%
    02:00 +28°C° 0.2 mm 6 mps 759 mmHg 97%
    03:00 +27°C° 0.2 mm 6 mps 758 mmHg 97%
    04:00 +27°C° 0.6 mm 6 mps 758 mmHg 96%
    05:00 +27°C° 0.6 mm 6 mps 759 mmHg 96%
    06:00 +27°C° 0.6 mm 6 mps 759 mmHg 95%
    07:00 +29°C° 0.6 mm 6 mps 759 mmHg 85%
    08:00 +32°C° 0.6 mm 6 mps 760 mmHg 75%
    09:00 +34°C° 0.6 mm 6 mps 760 mmHg 65%
    10:00 +35°C° 0 mm 6 mps 760 mmHg 62%
    11:00 +36°C° 0 mm 6 mps 759 mmHg 58%
    12:00 +36°C° 0 mm 6 mps 759 mmHg 55%
    13:00 +36°C° 0 mm 6 mps 759 mmHg 55%
    14:00 +36°C° 0 mm 5 mps 758 mmHg 56%
    15:00 +36°C° 0 mm 5 mps 758 mmHg 56%
    16:00 +34°C° 0 mm 5 mps 758 mmHg 63%
    17:00 +33°C° 0 mm 5 mps 758 mmHg 71%
    18:00 +32°C° 0 mm 5 mps 758 mmHg 78%
    19:00 +30°C° 0 mm 5 mps 759 mmHg 82%
    20:00 +29°C° 0 mm 6 mps 759 mmHg 87%
    21:00 +28°C° 0 mm 6 mps 760 mmHg 91%
    22:00 +28°C° 0.1 mm 6 mps 760 mmHg 92%
    23:00 +28°C° 0.1 mm 6 mps 760 mmHg 93%

    2 August, Wednesday

    Time Temperature Precipitation Wind Pressure Humidity
    00:00 +28°C° 0.1 mm 6 mps 759 mmHg 95%
    01:00 +28°C° 0.1 mm 6 mps 759 mmHg 95%
    02:00 +28°C° 0.1 mm 6 mps 759 mmHg 95%
    03:00 +28°C° 0.1 mm 6 mps 759 mmHg 96%
    04:00 +27°C° 0.1 mm 6 mps 759 mmHg 96%
    05:00 +27°C° 0.1 mm 5 mps 759 mmHg 96%
    06:00 +27°C° 0.1 mm 5 mps 760 mmHg 96%
    07:00 +29°C° 0.5 mm 5 mps 760 mmHg 91%
    08:00 +30°C° 0.5 mm 5 mps 760 mmHg 86%
    09:00 +32°C° 0.5 mm 5 mps 761 mmHg 81%
    10:00 +34°C° 0.6 mm 5 mps 761 mmHg 71%
    11:00 +35°C° 0.6 mm 5 mps 760 mmHg 61%
    12:00 +37°C° 0.6 mm 5 mps 760 mmHg 50%
    13:00 +36°C° 0.2 mm 5 mps 760 mmHg 52%
    14:00 +36°C° 0.2 mm 4 mps 759 mmHg 53%
    15:00 +36°C° 0.2 mm 4 mps 759 mmHg 55%
    16:00 +34°C° 0.2 mm 5 mps 759 mmHg 62%
    17:00 +33°C° 0.2 mm 5 mps 759 mmHg 70%
    18:00 +32°C° 0.2 mm 5 mps 759 mmHg 77%
    19:00 +30°C° 0.1 mm 5 mps 760 mmHg 82%
    20:00 +29°C° 0.1 mm 5 mps 760 mmHg 87%
    21:00 +28°C° 0.1 mm 5 mps 761 mmHg 92%
    22:00 +28°C° 0.1 mm 5 mps 761 mmHg 93%
    23:00 +28°C° 0.1 mm 5 mps 761 mmHg 95%
    Show more